Location: Ravensburg
(47.7866°N, 9.6124°E)
Time: 08:34:00
(UTC+02:00)

YUBILEINY - Pass Details

Date: 22 March 2026
Orbit: 1477 x 1509 km, 82.5° (Epoch: 17 April)

Event Time Altitude Azimuth Distance (km) Brightness Sun altitude
Rises 03:57:39 0° 346° (NNW) 4,617 ? -23.8°
Reaches altitude 10° 04:00:40 10° 341° (NNW) 3,631 ? -23.3°
Maximum altitude 04:08:43 44° 273° (W) 1,943 ? -22.2°
Enters shadow 04:12:05 32° 227° (SW) 2,327 ? -21.7°
